| time (UTC) | temp F | wind direction | speed knots | gust knots | rain 1hr in | rain 24hr in | rain mn in | humidity % | barometer mb |
| 20260507172229 | 61 | 294 | 6.1 | 6.1 | 0.00 | 0.00 | 0.00 | 62 | 1013.0 |
| 20260507171601 | 61 | 24 | 4.3 | 4.3 | 0.00 | 0.00 | 0.00 | 62 | 1013.0 |
| 20260507171100 | 61 | 327 | 3.5 | 3.5 | 0.00 | 0.00 | 0.00 | 62 | 1013.0 |
| 20260507170603 | 62 | 306 | 3.5 | 3.5 | 0.00 | 0.00 | 0.00 | 62 | 1013.0 |
| 20260507170023 | 62 | 136 | 2.6 | 2.6 | 0.00 | 0.00 | 0.00 | 62 | 1013.0 |
| 20260507165532 | 62 | 283 | 6.1 | 7.0 | 0.00 | 0.00 | 0.00 | 61 | 1013.0 |
| 20260507165029 | 62 | 312 | 2.6 | 2.6 | 0.00 | 0.00 | 0.00 | 61 | 1013.0 |
| 20260507164456 | 62 | 343 | 3.5 | 3.5 | 0.00 | 0.00 | 0.00 | 61 | 1013.0 |
| 20260507164003 | 62 | 300 | 3.5 | 3.5 | 0.00 | 0.00 | 0.00 | 62 | 1013.0 |
| 20260507163431 | 62 | 276 | 2.6 | 2.6 | 0.00 | 0.00 | 0.00 | 61 | 1013.0 |
| 20260507162928 | 61 | 294 | 3.5 | 3.5 | 0.00 | 0.00 | 0.00 | 63 | 1013.0 |
| 20260507162428 | 61 | 48 | 4.3 | 4.3 | 0.00 | 0.00 | 0.00 | 63 | 1013.0 |
| 20260507161931 | 61 | 288 | 2.6 | 2.6 | 0.00 | 0.00 | 0.00 | 63 | 1013.0 |
| 20260507161202 | 61 | 333 | 3.5 | 3.5 | 0.00 | 0.00 | 0.00 | 62 | 1013.0 |
| 20260507160700 | 61 | 274 | 4.3 | 4.3 | 0.00 | 0.00 | 0.00 | 63 | 1013.0 |
| 20260507160118 | 60 | 348 | 2.6 | 2.6 | 0.00 | 0.00 | 0.00 | 62 | 1013.0 |
| 20260507155555 | 60 | 282 | 6.1 | 6.1 | 0.00 | 0.00 | 0.00 | 62 | 1013.0 |
| 20260507155053 | 60 | 28 | 3.5 | 3.5 | 0.00 | 0.00 | 0.00 | 62 | 1013.0 |
| 20260507154526 | 61 | 312 | 2.6 | 2.6 | 0.00 | 0.00 | 0.00 | 63 | 1013.0 |
| 20260507154025 | 61 | 99 | 3.5 | 3.5 | 0.00 | 0.00 | 0.00 | 63 | 1013.0 |
| 20260507153517 | 62 | 222 | 3.5 | 3.5 | 0.00 | 0.00 | 0.00 | 63 | 1013.0 |
| 20260507153015 | 62 | 326 | 2.6 | 2.6 | 0.00 | 0.00 | 0.00 | 65 | 1013.0 |
| 20260507152434 | 61 | 168 | 6.1 | 7.0 | 0.00 | 0.00 | 0.00 | 66 | 1013.0 |
| 20260507151931 | 60 | 350 | 4.3 | 4.3 | 0.00 | 0.00 | 0.00 | 65 | 1013.0 |
| 20260507151431 | 60 | 330 | 3.5 | 3.5 | 0.00 | 0.00 | 0.00 | 66 | 1013.0 |
| 20260507150937 | 60 | 349 | 2.6 | 2.6 | 0.00 | 0.00 | 0.00 | 68 | 1013.0 |
| 20260507150035 | 61 | 12 | 3.5 | 3.5 | 0.00 | 0.00 | 0.00 | 61 | 1014.0 |
| 20260507145544 | 61 | 68 | 2.6 | 2.6 | 0.00 | 0.00 | 0.00 | 61 | 1014.0 |
| 20260507145039 | 61 | 292 | 2.6 | 2.6 | 0.00 | 0.00 | 0.00 | 60 | 1014.0 |
| 20260507144534 | 61 | 246 | 2.6 | 2.6 | 0.00 | 0.00 | 0.00 | 59 | 1014.0 |
| 20260507144032 | 61 | 36 | 2.6 | 2.6 | 0.00 | 0.00 | 0.00 | 59 | 1014.0 |
| 20260507143529 | 62 | 348 | 3.5 | 3.5 | 0.00 | 0.00 | 0.00 | 59 | 1014.0 |
| 20260507143028 | 62 | 314 | 2.6 | 2.6 | 0.00 | 0.00 | 0.00 | 58 | 1014.0 |
| 20260507142525 | 63 | 50 | 5.2 | 6.1 | 0.00 | 0.00 | 0.00 | 57 | 1014.0 |
| 20260507142035 | 62 | 217 | 3.5 | 3.5 | 0.00 | 0.00 | 0.00 | 57 | 1014.0 |
| 20260507141542 | 63 | 152 | 3.5 | 3.5 | 0.00 | 0.00 | 0.00 | 56 | 1014.0 |
| 20260507141028 | 63 | 210 | 2.6 | 2.6 | 0.00 | 0.00 | 0.00 | 56 | 1014.0 |
| 20260507140536 | 63 | 283 | 5.2 | 5.2 | 0.00 | 0.00 | 0.00 | 57 | 1014.0 |
| 20260507140038 | 65 | 308 | 2.6 | 2.6 | 0.00 | 0.00 | 0.00 | 54 | 1014.0 |
| 20260507135535 | 64 | 258 | 7.0 | 7.0 | 0.00 | 0.00 | 0.00 | 54 | 1014.0 |
| 20260507135037 | 62 | 258 | 7.0 | 7.8 | 0.00 | 0.00 | 0.00 | 56 | 1014.0 |
| 20260507134547 | 61 | 308 | 2.6 | 2.6 | 0.00 | 0.00 | 0.00 | 59 | 1014.0 |
| 20260507134047 | 61 | 252 | 4.3 | 4.3 | 0.00 | 0.00 | 0.00 | 61 | 1014.0 |
| 20260507133509 | 61 | 315 | 4.3 | 4.3 | 0.00 | 0.00 | 0.00 | 61 | 1014.0 |
| 20260507132932 | 60 | 348 | 2.6 | 2.6 | 0.00 | 0.00 | 0.00 | 60 | 1014.0 |
| 20260507132439 | 61 | 327 | 3.5 | 3.5 | 0.00 | 0.00 | 0.00 | 59 | 1014.0 |
| 20260507131945 | 61 | 156 | 2.6 | 2.6 | 0.00 | 0.00 | 0.00 | 58 | 1014.0 |
| 20260507131454 | 62 | 299 | 3.5 | 3.5 | 0.00 | 0.00 | 0.00 | 59 | 1014.0 |
| 20260507130950 | 62 | 276 | 3.5 | 3.5 | 0.00 | 0.00 | 0.00 | 60 | 1014.0 |
| 20260507130412 | 62 | 314 | 5.2 | 5.2 | 0.00 | 0.00 | 0.00 | 60 | 1014.0 |
| 20260507125915 | 61 | 252 | 4.3 | 4.3 | 0.00 | 0.00 | 0.00 | 60 | 1014.0 |
| 20260507125423 | 62 | 301 | 8.7 | 8.7 | 0.00 | 0.00 | 0.00 | 58 | 1014.0 |
| 20260507124932 | 64 | 318 | 2.6 | 2.6 | 0.00 | 0.00 | 0.00 | 56 | 1014.0 |
| 20260507124418 | 64 | 282 | 3.5 | 3.5 | 0.00 | 0.00 | 0.00 | 55 | 1014.0 |
| 20260507123923 | 62 | 354 | 6.1 | 6.1 | 0.00 | 0.00 | 0.00 | 59 | 1014.0 |
| 20260507123352 | 62 | 304 | 3.5 | 3.5 | 0.00 | 0.00 | 0.00 | 59 | 1014.0 |
| 20260507122844 | 62 | 258 | 2.6 | 2.6 | 0.00 | 0.00 | 0.00 | 62 | 1014.0 |
| 20260507122312 | 61 | 354 | 7.8 | 8.7 | 0.00 | 0.00 | 0.00 | 61 | 1015.0 |
| 20260507121820 | 62 | 320 | 4.3 | 4.3 | 0.00 | 0.00 | 0.00 | 61 | 1015.0 |
| 20260507121317 | 62 | 231 | 3.5 | 3.5 | 0.00 | 0.00 | 0.00 | 61 | 1015.0 |
| 20260507120817 | 62 | 270 | 4.3 | 4.3 | 0.00 | 0.00 | 0.00 | 60 | 1015.0 |
| 20260507120323 | 62 | 312 | 2.6 | 2.6 | 0.00 | 0.00 | 0.00 | 61 | 1015.0 |
| 20260507115555 | 61 | 306 | 3.5 | 3.5 | 0.00 | 0.00 | 0.00 | 60 | 1015.0 |
| 20260507114938 | 61 | 292 | 2.6 | 2.6 | 0.00 | 0.00 | 0.00 | 61 | 1015.0 |
| 20260507114435 | 61 | 289 | 2.6 | 2.6 | 0.00 | 0.00 | 0.00 | 62 | 1015.0 |
| 20260507113915 | 61 | 342 | 3.5 | 3.5 | 0.00 | 0.00 | 0.00 | 60 | 1015.0 |
| 20260507113414 | 61 | 299 | 7.8 | 7.8 | 0.00 | 0.00 | 0.00 | 62 | 1015.0 |
| 20260507112915 | 62 | 294 | 5.2 | 6.1 | 0.00 | 0.00 | 0.00 | 60 | 1015.0 |
| 20260507112415 | 61 | 288 | 3.5 | 3.5 | 0.00 | 0.00 | 0.00 | 62 | 1015.0 |
| 20260507111912 | 61 | 300 | 7.0 | 7.0 | 0.00 | 0.00 | 0.00 | 61 | 1015.0 |
| 20260507111411 | 63 | 323 | 2.6 | 2.6 | 0.00 | 0.00 | 0.00 | 59 | 1015.0 |
| 20260507110912 | 62 | 339 | 6.1 | 6.1 | 0.00 | 0.00 | 0.00 | 60 | 1015.0 |
| 20260507110410 | 60 | 84 | 2.6 | 2.6 | 0.00 | 0.00 | 0.00 | 61 | 1015.0 |
| 20260507105910 | 60 | 288 | 3.5 | 3.5 | 0.00 | 0.00 | 0.00 | 64 | 1015.0 |
| 20260507105410 | 61 | 314 | 5.2 | 6.1 | 0.00 | 0.00 | 0.00 | 63 | 1015.0 |
| 20260507104914 | 62 | 296 | 6.1 | 7.0 | 0.00 | 0.00 | 0.00 | 61 | 1015.0 |
| 20260507104423 | 62 | 258 | 2.6 | 2.6 | 0.00 | 0.00 | 0.00 | 62 | 1015.0 |
| 20260507103932 | 62 | 295 | 2.6 | 2.6 | 0.00 | 0.00 | 0.00 | 61 | 1015.0 |
| 20260507103401 | 61 | 270 | 3.5 | 3.5 | 0.00 | 0.00 | 0.00 | 64 | 1015.0 |
| 20260507102830 | 61 | 252 | 2.6 | 2.6 | 0.00 | 0.00 | 0.00 | 63 | 1015.0 |
| 20260507102340 | 60 | 311 | 5.2 | 6.1 | 0.00 | 0.00 | 0.00 | 64 | 1015.0 |
| 20260507101847 | 60 | 306 | 3.5 | 3.5 | 0.00 | 0.00 | 0.00 | 62 | 1015.0 |
| 20260507101352 | 60 | 270 | 2.6 | 2.6 | 0.00 | 0.00 | 0.00 | 66 | 1015.0 |
| 20260507100815 | 60 | 271 | 6.1 | 7.0 | 0.00 | 0.00 | 0.00 | 65 | 1015.0 |
| 20260507100319 | 60 | 246 | 3.5 | 3.5 | 0.00 | 0.00 | 0.00 | 65 | 1015.0 |
| 20260507095818 | 60 | 354 | 3.5 | 3.5 | 0.00 | 0.00 | 0.00 | 66 | 1015.0 |
| 20260507095318 | 59 | 270 | 7.0 | 7.0 | 0.00 | 0.00 | 0.00 | 66 | 1015.0 |
| 20260507094817 | 59 | 331 | 2.6 | 2.6 | 0.00 | 0.00 | 0.00 | 66 | 1015.0 |
| 20260507094315 | 58 | 325 | 4.3 | 4.3 | 0.00 | 0.00 | 0.00 | 66 | 1015.0 |
| 20260507093814 | 57 | 354 | 6.1 | 6.1 | 0.00 | 0.00 | 0.00 | 68 | 1015.0 |
| 20260507093317 | 57 | 240 | 3.5 | 3.5 | 0.00 | 0.00 | 0.00 | 70 | 1015.0 |
| 20260507092727 | 57 | 258 | 7.0 | 7.0 | 0.00 | 0.00 | 0.00 | 70 | 1015.0 |
| 20260507092201 | 57 | 319 | 4.3 | 4.3 | 0.00 | 0.00 | 0.00 | 69 | 1015.0 |
| 20260507091703 | 57 | 17 | 3.5 | 3.5 | 0.00 | 0.00 | 0.00 | 67 | 1015.0 |
| 20260507091209 | 56 | 24 | 7.8 | 7.8 | 0.00 | 0.00 | 0.00 | 70 | 1015.0 |
| 20260507090714 | 55 | 348 | 5.2 | 5.2 | 0.00 | 0.00 | 0.00 | 72 | 1015.0 |
| 20260507090218 | 55 | 296 | 3.5 | 3.5 | 0.00 | 0.00 | 0.00 | 72 | 1015.0 |
| 20260507085717 | 55 | 295 | 3.5 | 3.5 | 0.00 | 0.00 | 0.00 | 71 | 1015.0 |
| 20260507085040 | 54 | 339 | 3.5 | 3.5 | 0.00 | 0.00 | 0.00 | 73 | 1015.0 |
| 20260507084410 | 53 | 300 | 2.6 | 2.6 | 0.00 | 0.00 | 0.00 | 74 | 1015.0 |
| 20260507083841 | 52 | 60 | 2.6 | 2.6 | 0.00 | 0.00 | 0.00 | 75 | 1015.0 |
| 20260507083349 | 53 | 315 | 2.6 | 2.6 | 0.00 | 0.00 | 0.00 | 75 | 1015.0 |
| 20260507082821 | 52 | 66 | 3.5 | 3.5 | 0.00 | 0.00 | 0.00 | 76 | 1015.0 |
| 20260507082321 | 52 | 286 | 4.3 | 4.3 | 0.00 | 0.00 | 0.00 | 76 | 1015.0 |
| 20260507081805 | 52 | 354 | 7.8 | 7.8 | 0.00 | 0.00 | 0.00 | 76 | 1015.0 |
| 20260507081307 | 52 | 192 | 4.3 | 4.3 | 0.00 | 0.00 | 0.00 | 77 | 1015.0 |
| 20260507080806 | 52 | 336 | 2.6 | 2.6 | 0.00 | 0.00 | 0.00 | 77 | 1015.0 |
| 20260507080258 | 52 | 317 | 6.1 | 6.1 | 0.00 | 0.00 | 0.00 | 77 | 1015.0 |
| 20260507075758 | 51 | 305 | 2.6 | 2.6 | 0.00 | 0.00 | 0.00 | 77 | 1015.0 |
| 20260507075257 | 51 | 298 | 2.6 | 2.6 | 0.00 | 0.00 | 0.00 | 78 | 1015.0 |
| 20260507074758 | 51 | 318 | 2.6 | 2.6 | 0.00 | 0.00 | 0.00 | 78 | 1015.0 |
| 20260507074257 | 51 | 283 | 4.3 | 4.3 | 0.00 | 0.00 | 0.00 | 78 | 1015.0 |
| 20260507073804 | 51 | 300 | 2.6 | 2.6 | 0.00 | 0.00 | 0.00 | 78 | 1015.0 |
| 20260507073302 | 51 | 293 | 3.5 | 3.5 | 0.00 | 0.00 | 0.00 | 78 | 1015.0 |
| 20260507072810 | 51 | 312 | 3.5 | 3.5 | 0.00 | 0.00 | 0.00 | 79 | 1015.0 |
| 20260507072239 | 51 | 280 | 2.6 | 2.6 | 0.00 | 0.00 | 0.00 | 78 | 1015.0 |
| 20260507071745 | 50 | 291 | 3.5 | 3.5 | 0.00 | 0.00 | 0.00 | 79 | 1015.0 |
| 20260507071242 | 50 | 348 | 2.6 | 2.6 | 0.00 | 0.00 | 0.00 | 79 | 1015.0 |
| 20260507070645 | 50 | 269 | 3.5 | 3.5 | 0.00 | 0.00 | 0.00 | 79 | 1015.0 |
| 20260507070150 | 50 | 330 | 2.6 | 2.6 | 0.00 | 0.00 | 0.00 | 79 | 1015.0 |
| 20260507065639 | 50 | 289 | 3.5 | 3.5 | 0.00 | 0.00 | 0.00 | 79 | 1015.0 |
| 20260507065118 | 50 | 300 | 5.2 | 5.2 | 0.00 | 0.00 | 0.00 | 79 | 1015.0 |
| 20260507064617 | 50 | 305 | 3.5 | 3.5 | 0.00 | 0.00 | 0.00 | 79 | 1015.0 |
| 20260507064102 | 50 | 271 | 8.7 | 9.6 | 0.00 | 0.00 | 0.00 | 79 | 1015.0 |
| 20260507063536 | 50 | 301 | 3.5 | 3.5 | 0.00 | 0.00 | 0.00 | 79 | 1015.0 |
| 20260507063034 | 49 | 240 | 7.8 | 7.8 | 0.00 | 0.00 | 0.00 | 79 | 1015.0 |
| 20260507062531 | 50 | 205 | 5.2 | 6.1 | 0.00 | 0.00 | 0.00 | 79 | 1015.0 |
| 20260507062034 | 49 | 300 | 2.6 | 2.6 | 0.00 | 0.00 | 0.00 | 79 | 1015.0 |
| 20260507061428 | 49 | 291 | 2.6 | 2.6 | 0.00 | 0.00 | 0.00 | 79 | 1015.0 |
| 20260507060919 | 49 | 324 | 4.3 | 4.3 | 0.00 | 0.00 | 0.00 | 79 | 1015.0 |
| 20260507060358 | 49 | 264 | 5.2 | 5.2 | 0.00 | 0.00 | 0.00 | 79 | 1015.0 |
| 20260507055855 | 49 | 336 | 3.5 | 3.5 | 0.00 | 0.00 | 0.00 | 79 | 1015.0 |
| 20260507055328 | 49 | 286 | 4.3 | 4.3 | 0.00 | 0.00 | 0.00 | 79 | 1015.0 |
| 20260507054814 | 49 | 264 | 5.2 | 5.2 | 0.00 | 0.00 | 0.00 | 79 | 1015.0 |
| 20260507054311 | 49 | 359 | 3.5 | 3.5 | 0.00 | 0.00 | 0.00 | 79 | 1015.0 |
| 20260507053752 | 49 | 338 | 2.6 | 2.6 | 0.00 | 0.00 | 0.00 | 79 | 1015.0 |
| 20260507053211 | 49 | 258 | 4.3 | 4.3 | 0.00 | 0.00 | 0.00 | 79 | 1015.0 |
| 20260507052719 | 49 | 318 | 3.5 | 3.5 | 0.00 | 0.00 | 0.00 | 79 | 1015.0 |
| 20260507052215 | 49 | 318 | 7.8 | 8.7 | 0.00 | 0.00 | 0.00 | 79 | 1015.0 |
| 20260507051702 | 48 | 252 | 4.3 | 4.3 | 0.00 | 0.00 | 0.00 | 79 | 1014.0 |
| 20260507051200 | 48 | 294 | 2.6 | 2.6 | 0.00 | 0.00 | 0.00 | 79 | 1014.0 |
| 20260507050700 | 48 | 240 | 3.5 | 3.5 | 0.00 | 0.00 | 0.00 | 79 | 1014.0 |
| 20260507050203 | 48 | 244 | 4.3 | 4.3 | 0.00 | 0.00 | 0.00 | 79 | 1014.0 |
| 20260507045706 | 48 | 286 | 2.6 | 2.6 | 0.00 | 0.00 | 0.00 | 79 | 1014.0 |
| 20260507045152 | 48 | 12 | 3.5 | 3.5 | 0.00 | 0.00 | 0.00 | 79 | 1014.0 |
| 20260507044655 | 48 | 349 | 2.6 | 2.6 | 0.00 | 0.00 | 0.00 | 79 | 1014.0 |
| 20260507044204 | 48 | 235 | 4.3 | 4.3 | 0.00 | 0.00 | 0.00 | 80 | 1014.0 |
| 20260507043710 | 48 | 288 | 2.6 | 2.6 | 0.00 | 0.00 | 0.00 | 80 | 1014.0 |
| 20260507043210 | 48 | 306 | 2.6 | 2.6 | 0.00 | 0.00 | 0.00 | 79 | 1014.0 |
| 20260507042639 | 48 | 336 | 3.5 | 3.5 | 0.00 | 0.00 | 0.00 | 79 | 1014.0 |
| 20260507042135 | 48 | 306 | 3.5 | 3.5 | 0.00 | 0.00 | 0.00 | 79 | 1014.0 |
| 20260507041633 | 48 | 300 | 2.6 | 2.6 | 0.00 | 0.00 | 0.00 | 79 | 1014.0 |
| 20260507041137 | 48 | 258 | 3.5 | 3.5 | 0.00 | 0.00 | 0.00 | 79 | 1014.0 |
| 20260507040015 | 49 | 204 | 3.5 | 3.5 | 0.00 | 0.00 | 0.00 | 79 | 1014.0 |
| 20260507035432 | 49 | 264 | 2.6 | 2.6 | 0.00 | 0.00 | 0.00 | 78 | 1014.0 |
| 20260507034751 | 49 | 307 | 3.5 | 3.5 | 0.00 | 0.00 | 0.00 | 79 | 1014.0 |
| 20260507034224 | 49 | 292 | 3.5 | 3.5 | 0.00 | 0.00 | 0.00 | 79 | 1014.0 |
| 20260507033728 | 49 | 293 | 2.6 | 2.6 | 0.00 | 0.00 | 0.00 | 78 | 1014.0 |
| 20260507033159 | 49 | 333 | 3.5 | 3.5 | 0.00 | 0.00 | 0.00 | 78 | 1014.0 |
| 20260507032658 | 49 | 298 | 3.5 | 3.5 | 0.00 | 0.00 | 0.00 | 78 | 1014.0 |
| 20260507032156 | 49 | 294 | 3.5 | 3.5 | 0.00 | 0.00 | 0.00 | 79 | 1014.0 |
| 20260507031623 | 49 | 240 | 6.1 | 7.0 | 0.00 | 0.00 | 0.00 | 79 | 1014.0 |
| 20260507031122 | 49 | 331 | 3.5 | 3.5 | 0.00 | 0.00 | 0.00 | 78 | 1014.0 |
| 20260507030628 | 49 | 281 | 6.1 | 6.1 | 0.00 | 0.00 | 0.00 | 78 | 1014.0 |
| 20260507030124 | 49 | 312 | 2.6 | 2.6 | 0.00 | 0.00 | 0.00 | 78 | 1014.0 |
| 20260507025601 | 49 | 300 | 3.5 | 3.5 | 0.00 | 0.00 | 0.00 | 77 | 1014.0 |
| 20260507025105 | 49 | 266 | 2.6 | 2.6 | 0.00 | 0.00 | 0.00 | 76 | 1014.0 |
| 20260507024543 | 49 | 306 | 6.1 | 6.1 | 0.00 | 0.00 | 0.00 | 75 | 1014.0 |
| 20260507024051 | 49 | 310 | 6.1 | 6.1 | 0.00 | 0.00 | 0.00 | 76 | 1014.0 |
| 20260507023553 | 49 | 301 | 2.6 | 2.6 | 0.00 | 0.00 | 0.00 | 76 | 1014.0 |
| 20260507023056 | 49 | 342 | 2.6 | 2.6 | 0.00 | 0.00 | 0.00 | 77 | 1014.0 |
| 20260507022515 | 49 | 251 | 4.3 | 4.3 | 0.00 | 0.00 | 0.00 | 77 | 1014.0 |
| 20260507022016 | 49 | 333 | 2.6 | 2.6 | 0.00 | 0.00 | 0.00 | 78 | 1014.0 |
| 20260507021431 | 49 | 286 | 3.5 | 3.5 | 0.00 | 0.00 | 0.00 | 78 | 1014.0 |
| 20260507020853 | 49 | 318 | 4.3 | 4.3 | 0.00 | 0.00 | 0.00 | 78 | 1014.0 |
| 20260507020305 | 49 | 327 | 2.6 | 2.6 | 0.00 | 0.00 | 0.00 | 78 | 1014.0 |
| 20260507015556 | 49 | 6 | 2.6 | 2.6 | 0.00 | 0.00 | 0.00 | 77 | 1014.0 |
| 20260507015039 | 50 | 312 | 3.5 | 3.5 | 0.00 | 0.00 | 0.00 | 78 | 1014.0 |
| 20260507014542 | 49 | 344 | 2.6 | 2.6 | 0.00 | 0.00 | 0.00 | 78 | 1014.0 |
| 20260507013831 | 49 | 319 | 2.6 | 2.6 | 0.00 | 0.00 | 0.00 | 81 | 1014.0 |
| 20260507005815 | 50 | 278 | 2.6 | 2.6 | 0.00 | 0.00 | 0.00 | 81 | 1014.0 |
| 20260507004404 | 50 | 294 | 2.6 | 2.6 | 0.00 | 0.00 | 0.00 | 82 | 1014.0 |
| 20260507003716 | 50 | 264 | 4.3 | 4.3 | 0.00 | 0.00 | 0.00 | 83 | 1014.0 |
| 20260507003047 | 50 | 354 | 4.3 | 4.3 | 0.00 | 0.00 | 0.00 | 84 | 1014.0 |
| 20260507002424 | 50 | 336 | 2.6 | 2.6 | 0.00 | 0.00 | 0.00 | 85 | 1014.0 |
| 20260507001840 | 50 | 276 | 3.5 | 3.5 | 0.00 | 0.00 | 0.00 | 86 | 1014.0 |
| 20260507000808 | 50 | 337 | 2.6 | 2.6 | 0.00 | 0.00 | 0.00 | 87 | 1014.0 |
| 20260506235948 | 51 | 344 | 2.6 | 2.6 | 0.00 | 0.00 | 0.00 | 89 | 1014.0 |
| 20260506195058 | 53 | 197 | 2.6 | 2.6 | 0.00 | 0.00 | 0.01 | 88 | 1013.0 |
| 20260506194407 | 53 | 114 | 2.6 | 2.6 | 0.00 | 0.00 | 0.01 | 88 | 1013.0 |
| 20260506193043 | 53 | 96 | 2.6 | 2.6 | 0.00 | 0.00 | 0.01 | 89 | 1013.0 |
| 20260506191636 | 53 | 108 | 2.6 | 2.6 | 0.00 | 0.00 | 0.01 | 89 | 1013.0 |
| 20260506190717 | 53 | 48 | 2.6 | 2.6 | 0.00 | 0.00 | 0.01 | 88 | 1013.0 |
| 20260506185852 | 53 | 152 | 2.6 | 2.6 | 0.00 | 0.00 | 0.01 | 86 | 1013.0 |
| 20260506185348 | 54 | 114 | 2.6 | 2.6 | 0.00 | 0.00 | 0.01 | 84 | 1013.0 |
| 20260506183347 | 54 | 294 | 2.6 | 2.6 | 0.00 | 0.00 | 0.01 | 82 | 1013.0 |
| 20260506172614 | 56 | 289 | 3.5 | 3.5 | 0.00 | 0.00 | 0.01 | 74 | 1012.0 |